Powrót do katalogu

HEAD-2E

AktywnyŁącznośćSSO
NORAD 49319·PAYLOAD·🇨🇳 China
Ta nazwa satelity nie została jeszcze potwierdzona przez oficjalne źródła.

Wystrzelony Oct 14, 2021 z Taiyuan Satellite Launch Center

Loading…

Następne Przeloty (najbliższe 24 godziny)

TLE

ŚwieżeSource: Space-Track

Epoka: Sep 14, 2026, 15:45 UTC

1 49319U 21091E   26257.65656584  .00035632  00000-0  29314-3 0  9997
2 49319  97.3620 122.9377 0003734 355.8806   4.2425 15.70328574275360

Śledź HEAD-2E w czasie rzeczywistym z AllMySat

Download on the App Store